Location: *
(32.3758°S, 63.1185°E)
Time: 18:48:44
(UTC+00:00)

Cosmos 2263 Rocket - Pass Details

Date: 02 June 2023
Orbit: 824 x 847 km, 71.0° (Epoch: 23 September)

Event Time Altitude Azimuth Distance (km) Brightness Sun altitude
Rises 14:45:43 0° 337° (NNW) 3,387 5.8 -23.9°
Reaches altitude 10° 14:48:09 10° 335° (NNW) 2,457 5.0 -24.4°
Maximum altitude 14:53:48 76° 249° (WSW) 873 2.3 -25.6°
Enters shadow 14:55:47 42° 173° (S) 1,191 2.8 -26.0°
